This demonstration page uses our WeatherBlox Daily Observations layout. Learn more.

Left ArrowRight Arrow

Hourly Observations for December 2, 2022

Temp ( °F °C ) Dew Point ( °F °C ) Humidity (%) Winds ( mph kmh ) Pressure ( in mb ) Visibility ( mi km ) Precip ( " mm )
12:12 am 00:12 Cloudy with Light Snow 1 -17.2 -4 -20 79 79 NNW 10 17 30.11 1020 2 2 0.01 0.13
12:33 am 00:33 Cloudy with Light Snow 1 -17.2 -4 -20 79 79 NW 12 19 30.12 1020 2 3 0.01 0.25
12:53 am 00:53 Cloudy with Light Snow 0 -17.8 -5 -20.6 79 79 NW 10 17 30.01 1016 3 4 0.01 0.25
1:05 am 01:05 Cloudy with Light Snow 0 -17.8 -5 -20.6 79 79 NW 10 17 30.14 1021 3 5 0.01 0.13
1:53 am 01:53 Cloudy with Light Snow -1 -18.3 -5 -20.6 82 82 NW 9 15 30.03 1017 1 2 0.01 0.25
2:16 am 02:16 Cloudy with Light Snow -1 -18.3 -6 -21.1 78 78 NW 7 11 30.18 1022 2 3 0.01 0.25
2:53 am 02:53 Cloudy with Haze -2 -18.9 -7 -21.7 78 78 NW 10 17 30.08 1019 3 5 0.02 0.51
3:21 am 03:21 Partly Cloudy -5 -20.6 -11 -23.9 75 75 W 7 11 30.24 1024 10 16 0.00 0.00
3:53 am 03:53 Partly Cloudy -7 -21.7 -12 -24.4 79 79 WSW 5 7 30.10 1019 10 16 0.00 0.00
4:53 am 04:53 Cloudy -5 -20.6 -11 -23.9 75 75 WNW 13 20 30.13 1020 10 16 0.00 0.00
5:53 am 05:53 Mostly Cloudy -8 -22.2 -13 -25 78 78 W 8 13 30.17 1022 10 16 0.00 0.00
6:53 am 06:53 Clear -12 -24.4 -17 -27.2 77 77 SW 9 15 30.21 1023 10 16 0.00 0.00
7:53 am 07:53 Cloudy -8 -22.2 -13 -25 78 78 WSW 8 13 30.24 1024 10 16 0.00 0.00
8:53 am 08:53 Cloudy -6 -21.1 -13 -25 71 71 WSW 7 11 30.27 1025 10 16 0.00 0.00
9:53 am 09:53 Cloudy -4 -20 -12 -24.4 68 68 WSW 9 15 30.29 1026 10 16 0.00 0.00
10:53 am 10:53 Mostly Cloudy -3 -19.4 -11 -23.9 67 67 SW 9 15 30.32 1027 10 16 0.00 0.00
11:53 am 11:53 Sunny -1 -18.3 -9 -22.8 68 68 SW 8 13 30.32 1027 10 16 0.00 0.00
12:53 pm 12:53 Sunny 0 -17.8 -7 -21.7 71 71 WSW 12 19 30.32 1027 10 16 0.00 0.00
1:53 pm 13:53 Sunny -1 -18.3 -9 -22.8 68 68 WSW 12 19 30.33 1027 10 16 0.00 0.00
2:53 pm 14:53 Sunny -2 -18.9 -10 -23.3 68 68 SW 15 24 30.35 1028 10 16 0.00 0.00
3:53 pm 15:53 Sunny -3 -19.4 -11 -23.9 67 67 SW 10 17 30.37 1029 10 16 0.00 0.00
4:53 pm 16:53 Clear -7 -21.7 -13 -25 74 74 SW 10 17 30.37 1029 10 16 0.00 0.00
5:53 pm 17:53 Clear -8 -22.2 -14 -25.6 74 74 WSW 8 13 30.39 1029 10 16 0.00 0.00
6:53 pm 18:53 Clear -9 -22.8 -14 -25.6 78 78 WSW 6 9 30.38 1029 10 16 0.00 0.00
7:53 pm 19:53 Mostly Cloudy -7 -21.7 -13 -25 74 74 Calm 30.36 1028 10 16 0.00 0.00
8:53 pm 20:53 Clear -4 -20 -11 -23.9 71 71 Calm 30.36 1028 10 16 0.00 0.00
9:53 pm 21:53 Clear -3 -19.4 -10 -23.3 71 71 E 3 6 30.34 1028 10 16 0.00 0.00
10:53 pm 22:53 Clear -2 -18.9 -8 -22.2 75 75 Calm 30.32 1027 10 16 0.00 0.00
11:53 pm 23:53 Clear -1 -18.3 -7 -21.7 74 74 NE 3 6 30.31 1026 10 16 0.00 0.00

Powered by AerisWeather